Regional Weather Roundup
Issued by NWS Goodland, KS

Home | Current Version | Previous Version | Graphics & Text | Print | Product List | Glossary On
Versions: 1 2 3 4 5 6 7 8 9 10 11 12 13 14 15 16 17 18 19 20 21 22 23 24 25 26 27 28 29 30 31 32 33 34 35 36 37 38 39 40 41 42 43 44 45 46 47 48 49 50
823
ASUS43 KGLD 260508
RWRGLD

GOODLAND FORECAST AREA HOURLY WEATHER ROUNDUP
NATIONAL WEATHER SERVICE GOODLAND KS
1100 PM MDT SAT MAR 25 2017

...OFFICIAL OBSERVATIONS...

CITY           SKY/WX    TMP DP  RH WIND       PRES   REMARKS
GOODLAND KS    CLOUDY    40  38  93 SE9       29.85F
HILL CITY KS   PTCLDY    36  36 100 E3        29.90F FOG
IMPERIAL NEB   CLOUDY    42  39  89 SE13      29.86F
MCCOOK NEB     CLOUDY    41  41 100 E7        29.89F FOG
AKRON CO       CLOUDY    44  32  62 S10       29.85R
BURLINGTON CO  PTCLDY    43  30  60 SE14      29.85F
LIMON CO       CLOUDY    41  37  86 SE3       29.86S
$$

...UNOFFICIAL OBSERVATIONS...

CITY           SKY/WX    TMP DP  RH WIND       PRES   REMARKS
LENORA KS        N/A     37  32  82 CALM        N/A
NORTON KS      CLOUDY    39  37  93 E5        29.89F FOG
SHARON SPRINGS   N/A     42  37  84 SE8         N/A
TRENTON NEB      N/A     39  32  76 SE5         N/A
YUMA CO        FAIR      36  32  87 SE7       29.84F
$$




USA.gov is the U.S. government's official web portal to all federal, state and local government web resources and services.